[[{"header":{"parameterUnit":"m.s-1","parameterCategory":2,"la1":30.2991,"la2":30.254,"lo1":-89.0895,"lo2":-89.0444,"dy":0.0017,"dx":0.0017,"nx":28,"ny":28,"refTime":"2024-05-30T03:00:00:Z","depth":"0","parameterNumber":2,"parameterNumberName":"U-component_of_CURRENTS"},"data":[0,0,0,0,0,0,0,0,0,0,0,0,0,0,0,0,0,0,0,0,0,0,0,0,0,0,0,0,0,0,0,0,0,0,0,0,0,0,0,0,0,0,0,0,0,0,0,0,0,0,0,0,0,0,0,0,0,0,0.2354,0.2355,0,0.2401,0.2401,0.2401,0.2414,0.2414,0.2414,0.2414,0.2395,0.2395,0.2394,0,0,0,0,0,0,0,0,0,0,0,0,0,0.2268,0.227,0.2354,0.2355,0.2356,0.2401,0.2401,0.2401,0.2414,0.2414,0.2414,0.2414,0.2396,0.2395,0.2394,0,0,0,0,0,0,0,0,0,0,0,0,0,0.2305,0.227,0.2353,0.2371,0.2373,0.2401,0.2401,0.2401,0.2414,0.2414,0.2414,0.2414,0.2396,0.2395,0.2394,0.2383,0,0,0.2391,0.239,0,0,0,0,0,0,0,0,0.2303,0.2307,0.2367,0.237,0.2373,0.2406,0.2364,0.2393,0.2414,0.2393,0.2414,0.2415,0.2396,0.2395,0.2397,0.2382,0.2381,0.2391,0.239,0.239,0.2389,0,0,0,0,0,0,0,0.23,0.2305,0.2367,0.2369,0.2372,0.2375,0.238,0.237,0.2387,0.2395,0.2397,0.241,0.2396,0.2398,0.2397,0.2381,0.2391,0.239,0.2389,0.2389,0.2444,0.2446,0,0,0,0,0,0,0.2304,0.2303,0.2366,0.2369,0.2343,0.2377,0.2382,0.2391,0.2389,0.2391,0.241,0.2411,0.24,0.2398,0.2396,0.2442,0.239,0.2389,0.2388,0.2442,0.2444,0.2447,0,0,0,0,0,0,0.2302,0.2309,0.2364,0.2341,0.2349,0.2378,0.2388,0.2392,0.24,0.2402,0.2402,0.2416,0.24,0.2397,0.2407,0.2439,0.2388,0.2387,0.2439,0.2443,0.2446,0.2496,0,0,0,0,0,0,0.2299,0.2308,0.231,0.2341,0.2351,0.2386,0.2389,0.2393,0.241,0.2411,0.2407,0.2405,0.24,0.2409,0.2406,0.2437,0.2387,0.2437,0.2441,0.2445,0.2492,0.2501,0.2508,0,0,0,0,0,0.2296,0.23,0.2309,0.2317,0.2354,0.2387,0.2391,0.2409,0.241,0.2416,0.2424,0.2406,0.2433,0.2409,0.2406,0.2437,0.2435,0.244,0.2444,0.2488,0.2499,0.2508,0,0,0,0,0,0,0.226,0.2303,0.2314,0.2329,0.2359,0.2391,0.2399,0.2411,0.2421,0.242,0.2417,0.2416,0.2443,0.2433,0.2408,0.2469,0.2437,0.2441,0.2472,0.2481,0.2489,0.2503,0.2386,0,0,0,0,0,0.2254,0.227,0.2312,0.2323,0.234,0.2368,0.2382,0.2398,0.2416,0.2421,0.2424,0.2436,0.2458,0.2463,0.2472,0.249,0.2501,0.2515,0.2523,0.253,0.2543,0.2588,0.2601,0.2462,0.2462,0.2462,0,0,0.2242,0.227,0.2277,0.2317,0.2339,0.2373,0.2376,0.2401,0.2435,0.2415,0.2449,0.2456,0.247,0.2504,0.2515,0.2498,0.2578,0.2536,0.2541,0.2551,0.2594,0.2608,0.262,0.2465,0.2464,0.2464,0,0,0.2238,0.2253,0.227,0.2301,0.2344,0.2369,0.238,0.2418,0.2438,0.2469,0.2481,0.2513,0.2523,0.2558,0.2574,0.2631,0.2619,0.2632,0.2681,0.2725,0.2736,0.2747,0.2784,0.2797,0.2636,0.2637,0.2637,0,0.2221,0.2257,0.2279,0.2312,0.2346,0.2372,0.2409,0.2436,0.2474,0.2503,0.2487,0.2556,0.2559,0.2632,0.2659,0.265,0.2665,0.2637,0.2734,0.2745,0.2754,0.279,0.2804,0.264,0.2639,0.2639,0.2639,0,0.2241,0.2273,0.2287,0.2344,0.2377,0.241,0.2463,0.2495,0.2519,0.2553,0.2618,0.2633,0.2679,0.2692,0.2689,0.2772,0.2758,0.2736,0.2705,0.2771,0.2805,0.2818,0.2644,0.2643,0.2642,0.2641,0,0,0.2199,0.2286,0.229,0.2332,0.24,0.2433,0.2495,0.2567,0.2615,0.265,0.2717,0.277,0.2778,0.2799,0.2808,0.2848,0.2928,0.2822,0.2823,0.2851,0.3024,0.3093,0.3113,0.2916,0.2919,0.2921,0.3021,0,0.2213,0.2284,0.2324,0.2396,0.2443,0.2496,0.2554,0.2619,0.2668,0.2731,0.2778,0.2831,0.2821,0.2841,0.2887,0.2916,0.2966,0.2903,0.2962,0.2965,0.3011,0.3133,0.3091,0.3184,0.3034,0.3036,0.3037,0,0.2226,0.2278,0.235,0.2448,0.2471,0.2511,0.2615,0.267,0.2766,0.2805,0.2873,0.2897,0.2981,0.2944,0.3049,0.3005,0.3028,0.3044,0.3048,0.3106,0.306,0.3094,0.3214,0.3092,0.3058,0.3056,0.3055,0,0.2207,0.2298,0.236,0.2393,0.2498,0.2538,0.2591,0.2688,0.2741,0.2849,0.2888,0.2985,0.3026,0.308,0.313,0.3088,0.3233,0.3174,0.3264,0.3267,0.3244,0.3243,0.3248,0.3257,0.3257,0.3257,0.3256,0,0.2218,0.2267,0.2352,0.2387,0.2452,0.253,0.2601,0.2672,0.2767,0.2835,0.2914,0.299,0.306,0.3144,0.3173,0.3289,0.3276,0.3314,0.3319,0.3263,0.3262,0.3163,0.3099,0.326,0.326,0.3259,0.3258,0,0.219,0.2255,0.2321,0.2418,0.2445,0.2486,0.2582,0.263,0.2734,0.2822,0.2856,0.3004,0.3144,0.3222,0.3329,0.3355,0.3368,0.3478,0.3416,0.3415,0.3386,0.3327,0.3264,0.3163,0.3599,0.3602,0.3604,0,0.2186,0.2215,0.2308,0.2329,0.2367,0.2435,0.2474,0.2595,0.2647,0.2836,0.2872,0.305,0.3184,0.34,0.3518,0.3639,0.3461,0.3629,0.3558,0.3428,0.3363,0.3186,0.309,0.3535,0.3536,0.3537,0.3538,0,0.2143,0.2168,0.2211,0.2247,0.2287,0.2353,0.2422,0.2468,0.2617,0.2729,0.2905,0.3039,0.3311,0.347,0.3652,0.3705,0.3475,0.3661,0.3532,0.3352,0.3151,0.3041,0.3409,0.3549,0.3548,0.3547,0.3547,0.3546,0.2077,0.2073,0.2097,0.2144,0.219,0.2244,0.2283,0.2385,0.2499,0.2662,0.2858,0.3067,0.3324,0.3625,0.3643,0.3671,0.3599,0.3586,0.3537,0.3376,0.3251,0.3669,0.3812,0.3813,0.3813,0.3814,0.3814,0,0.1961,0.196,0.1985,0.2033,0.2065,0.2125,0.2221,0.2265,0.2388,0.2598,0.2786,0.3117,0.3296,0.3447,0.3626,0.3549,0.3339,0.3436,0.3135,0.3053,0.3447,0.3416,0.3473,0.3473,0.3473,0.3473,0.3473,0.3474,0.1883,0.1853,0.188,0.1893,0.1936,0.1961,0.2014,0.2112,0.2256,0.2493,0.2712,0.2916,0.3214,0.3429,0.341,0.3336,0.3018,0.2973,0.2863,0.311,0.3116,0.3122,0.3075,0.306,0.3059,0.2358,0.2353,0.2349]},{"header":{"parameterUnit":"m.s-1","parameterCategory":2,"la1":30.2991,"la2":30.254,"lo1":-89.0895,"lo2":-89.0444,"dy":0.0017,"dx":0.0017,"nx":28,"ny":28,"refTime":"2024-05-30T03:00:00:Z","depth":"0","parameterNumber":3,"parameterNumberName":"V-component_of_CURRENTS"},"data":[0,0,0,0,0,0,0,0,0,0,0,0,0,0,0,0,0,0,0,0,0,0,0,0,0,0,0,0,0,0,0,0,0,0,0,0,0,0,0,0,0,0,0,0,0,0,0,0,0,0,0,0,0,0,0,0,0,0,-0.0501,-0.0502,0,-0.0604,-0.0605,-0.0606,-0.0673,-0.0674,-0.0674,-0.0674,-0.0743,-0.0744,-0.0746,0,0,0,0,0,0,0,0,0,0,0,0,0,-0.0382,-0.0383,-0.0501,-0.0502,-0.0504,-0.0604,-0.0605,-0.0607,-0.0673,-0.0674,-0.0674,-0.0675,-0.0743,-0.0744,-0.0746,0,0,0,0,0,0,0,0,0,0,0,0,0,-0.0453,-0.0384,-0.0501,-0.0549,-0.0555,-0.0604,-0.0605,-0.0607,-0.0673,-0.0674,-0.0674,-0.0675,-0.0742,-0.0744,-0.0746,-0.0744,0,0,-0.0752,-0.0753,0,0,0,0,0,0,0,0,-0.0449,-0.0457,-0.0541,-0.0546,-0.0552,-0.0627,-0.0589,-0.0652,-0.0673,-0.0627,-0.0675,-0.0675,-0.0701,-0.0706,-0.0724,-0.0748,-0.0751,-0.0753,-0.0754,-0.0755,-0.0755,0,0,0,0,0,0,0,-0.0444,-0.0453,-0.0541,-0.0542,-0.0549,-0.0573,-0.0584,-0.0601,-0.0658,-0.0631,-0.0637,-0.0649,-0.0704,-0.0722,-0.0726,-0.0752,-0.0753,-0.0754,-0.0756,-0.0756,-0.0802,-0.0802,0,0,0,0,0,0,-0.0431,-0.0449,-0.0538,-0.0544,-0.0502,-0.0574,-0.0586,-0.0602,-0.0658,-0.0668,-0.0648,-0.0652,-0.0718,-0.0723,-0.0728,-0.0733,-0.0755,-0.0757,-0.0758,-0.0802,-0.0802,-0.0802,0,0,0,0,0,0,-0.0428,-0.0438,-0.0534,-0.0499,-0.0513,-0.0576,-0.0592,-0.0603,-0.0621,-0.0672,-0.0681,-0.0654,-0.0719,-0.0725,-0.0744,-0.0736,-0.0758,-0.076,-0.0802,-0.0802,-0.0802,-0.074,0,0,0,0,0,0,-0.0424,-0.0436,-0.0434,-0.0498,-0.0515,-0.0549,-0.0592,-0.0605,-0.0628,-0.0633,-0.0679,-0.0687,-0.072,-0.0741,-0.0746,-0.0739,-0.0761,-0.0802,-0.0802,-0.0802,-0.0742,-0.0737,-0.0734,0,0,0,0,0,-0.042,-0.0412,-0.0434,-0.0444,-0.0513,-0.0549,-0.0558,-0.0605,-0.0627,-0.0625,-0.0664,-0.0686,-0.0745,-0.0742,-0.0749,-0.0742,-0.0802,-0.0802,-0.0802,-0.0743,-0.0738,-0.0734,0,0,0,0,0,0,-0.0358,-0.042,-0.0445,-0.0457,-0.0494,-0.056,-0.0562,-0.0596,-0.0627,-0.0631,-0.0681,-0.0691,-0.0706,-0.0732,-0.0728,-0.0757,-0.0778,-0.0779,-0.0732,-0.0727,-0.0723,-0.0743,-0.0763,0,0,0,0,0,-0.0343,-0.0355,-0.0417,-0.0424,-0.0439,-0.0498,-0.0516,-0.0549,-0.059,-0.0605,-0.0642,-0.068,-0.0711,-0.0724,-0.0752,-0.0761,-0.0795,-0.0763,-0.0759,-0.0755,-0.0777,-0.0811,-0.0812,-0.0802,-0.0802,-0.0802,0,0,-0.0323,-0.0356,-0.0365,-0.0411,-0.0443,-0.0465,-0.051,-0.0531,-0.0554,-0.0605,-0.0633,-0.0662,-0.071,-0.0727,-0.0736,-0.0747,-0.0773,-0.0755,-0.0752,-0.0776,-0.0811,-0.0812,-0.0813,-0.0801,-0.0801,-0.0801,0,0,-0.0289,-0.0315,-0.0317,-0.0345,-0.0388,-0.0426,-0.0428,-0.0487,-0.0515,-0.0542,-0.059,-0.062,-0.0657,-0.07,-0.0725,-0.0716,-0.0749,-0.0715,-0.0711,-0.0742,-0.0743,-0.0745,-0.0771,-0.0775,-0.0713,-0.0713,-0.0713,0,-0.0261,-0.0288,-0.032,-0.0331,-0.0359,-0.0405,-0.0423,-0.045,-0.0509,-0.0537,-0.054,-0.0625,-0.0653,-0.0702,-0.0703,-0.0707,-0.0729,-0.072,-0.0736,-0.0739,-0.0742,-0.0768,-0.0774,-0.071,-0.0711,-0.0711,-0.0711,0,-0.0241,-0.0264,-0.0263,-0.0302,-0.0323,-0.0343,-0.0392,-0.0412,-0.0446,-0.049,-0.0537,-0.0581,-0.064,-0.0643,-0.0672,-0.0708,-0.0717,-0.0723,-0.0745,-0.0739,-0.0767,-0.0774,-0.0706,-0.0707,-0.0708,-0.0709,0,0,-0.0198,-0.0244,-0.0248,-0.0274,-0.0319,-0.034,-0.0363,-0.0419,-0.0443,-0.0484,-0.0527,-0.0582,-0.0612,-0.0645,-0.0678,-0.0708,-0.0731,-0.0721,-0.0724,-0.0742,-0.0796,-0.0763,-0.0767,-0.0732,-0.0734,-0.0735,-0.0801,0,-0.0187,-0.0212,-0.0236,-0.0265,-0.0296,-0.0337,-0.0357,-0.0402,-0.0439,-0.0476,-0.0536,-0.0573,-0.0609,-0.0625,-0.0666,-0.0715,-0.0751,-0.0714,-0.0806,-0.081,-0.0776,-0.0775,-0.0682,-0.073,-0.0808,-0.0809,-0.081,0,-0.0183,-0.0207,-0.0237,-0.0285,-0.0297,-0.0308,-0.0363,-0.0382,-0.0437,-0.0463,-0.0517,-0.0556,-0.0621,-0.0633,-0.0739,-0.071,-0.0759,-0.0795,-0.0798,-0.0803,-0.079,-0.0755,-0.0741,-0.092,-0.0822,-0.0821,-0.082,0,-0.0182,-0.0216,-0.0246,-0.0263,-0.0308,-0.0323,-0.0339,-0.0385,-0.0394,-0.045,-0.0455,-0.0548,-0.0569,-0.0658,-0.0735,-0.0738,-0.0833,-0.0844,-0.0869,-0.0867,-0.0828,-0.082,-0.0999,-0.0926,-0.0925,-0.0925,-0.0925,0,-0.0192,-0.0219,-0.0245,-0.0265,-0.0275,-0.0312,-0.0319,-0.0345,-0.0368,-0.0357,-0.0442,-0.0439,-0.0573,-0.0636,-0.0727,-0.0812,-0.0831,-0.0881,-0.0886,-0.0801,-0.079,-0.0978,-0.1073,-0.0928,-0.0927,-0.0927,-0.0926,0,-0.02,-0.0226,-0.0251,-0.028,-0.0279,-0.0282,-0.0273,-0.0276,-0.0303,-0.0285,-0.0294,-0.0361,-0.0426,-0.056,-0.0685,-0.0779,-0.0952,-0.0902,-0.079,-0.0781,-0.0973,-0.1066,-0.1254,-0.1343,-0.0954,-0.0954,-0.0953,0,-0.0214,-0.0231,-0.0234,-0.0229,-0.0238,-0.0235,-0.0226,-0.0239,-0.0221,-0.0216,-0.0196,-0.0254,-0.0241,-0.0429,-0.0596,-0.0755,-0.0926,-0.0815,-0.0817,-0.0986,-0.1095,-0.1172,-0.124,-0.0737,-0.0735,-0.0734,-0.0732,0,-0.0229,-0.0221,-0.0225,-0.0204,-0.0191,-0.0166,-0.0144,-0.0101,-0.0094,-0.0027,0.0059,0.0079,-0.0096,-0.0186,-0.0444,-0.0573,-0.092,-0.0786,-0.0994,-0.0976,-0.1041,-0.1125,-0.0701,-0.0717,-0.0719,-0.072,-0.0721,-0.0721,-0.0215,-0.021,-0.0201,-0.0165,-0.0145,-0.0088,0.0012,0.0068,0.0188,0.0379,0.0339,0.0517,0.0231,-0.0075,-0.0349,-0.0767,-0.0822,-0.0878,-0.0987,-0.1059,-0.1126,-0.0669,-0.067,-0.0671,-0.0672,-0.0673,-0.0674,0,-0.0182,-0.018,-0.0164,-0.0109,-0.0035,-0.0039,0.0081,0.0245,0.0489,0.0667,0.0854,0.0928,0.0568,0.0121,-0.0475,-0.0873,-0.1049,-0.1112,-0.122,-0.129,-0.0899,-0.0871,-0.0874,-0.0874,-0.0874,-0.0874,-0.0874,-0.0874,-0.0169,-0.0141,-0.0126,-0.0007,0.0058,0.0244,0.0372,0.0616,0.0824,0.1214,0.1448,0.1552,0.1202,-0.0044,-0.094,-0.1167,-0.1483,-0.1514,-0.1746,-0.1489,-0.1477,-0.1465,-0.1464,-0.1592,-0.1593,-0.206,-0.2064,-0.2068]}],[{"header":{"parameterUnit":"m.s-1","parameterCategory":2,"la1":30.2991,"la2":30.254,"lo1":-89.0895,"lo2":-89.0444,"dy":0.0017,"dx":0.0017,"nx":28,"ny":28,"refTime":"2024-05-30T03:00:00:Z","depth":"2","parameterNumber":2,"parameterNumberName":"U-component_of_CURRENTS"},"data":[0,0,0,0,0,0,0,0,0,0,0,0,0,0,0,0,0,0,0,0,0,0,0,0,0,0,0,0,0,0,0,0,0,0,0,0,0,0,0,0,0,0,0,0,0,0,0,0,0,0,0,0,0,0,0,0,0,0,0.2023,0.2023,0,0.2064,0.2064,0.2064,0.2088,0.2088,0.2088,0.2089,0.2116,0.2116,0.2117,0,0,0,0,0,0,0,0,0,0,0,0,0,0.196,0.196,0.2023,0.2024,0.2024,0.2064,0.2064,0.2064,0.2087,0.2088,0.2088,0.2089,0.2116,0.2116,0.2117,0,0,0,0,0,0,0,0,0,0,0,0,0,0.199,0.1961,0.2023,0.2043,0.2045,0.2064,0.2064,0.2064,0.2087,0.2088,0.2088,0.2089,0.2115,0.2116,0.2117,0.2111,0,0,0.2119,0.2119,0,0,0,0,0,0,0,0,0.1988,0.1992,0.2039,0.2041,0.2044,0.2073,0.2052,0.208,0.2087,0.2068,0.2089,0.2089,0.2102,0.2104,0.2106,0.2112,0.2113,0.2119,0.2119,0.2119,0.212,0,0,0,0,0,0,0,0.1986,0.199,0.2036,0.204,0.2043,0.2048,0.2052,0.2057,0.2079,0.207,0.2073,0.2081,0.2103,0.2106,0.2107,0.2113,0.2119,0.2119,0.212,0.212,0.2267,0.2271,0,0,0,0,0,0,0.1986,0.1988,0.2035,0.2038,0.202,0.2049,0.2054,0.2061,0.208,0.2084,0.2081,0.2082,0.2104,0.2107,0.2108,0.2176,0.2119,0.212,0.212,0.2264,0.2268,0.2272,0,0,0,0,0,0,0.1985,0.199,0.2033,0.2016,0.2022,0.205,0.2058,0.2062,0.2078,0.2089,0.2092,0.2094,0.2105,0.2107,0.213,0.2175,0.212,0.2121,0.2259,0.2265,0.227,0.2265,0,0,0,0,0,0,0.1982,0.1989,0.1997,0.2016,0.2023,0.2047,0.2058,0.2062,0.2083,0.2086,0.2101,0.2103,0.2106,0.2129,0.2131,0.2175,0.2121,0.2255,0.2262,0.2268,0.2261,0.2269,0.2277,0,0,0,0,0,0.198,0.1988,0.1997,0.2003,0.2033,0.2048,0.2052,0.2071,0.2083,0.2087,0.2108,0.2104,0.2175,0.2131,0.2132,0.2177,0.2252,0.226,0.2268,0.2257,0.2268,0.2277,0,0,0,0,0,0,0.1961,0.1992,0.2002,0.2018,0.2034,0.2053,0.2066,0.2077,0.2096,0.2107,0.2113,0.2117,0.2165,0.2179,0.2131,0.2252,0.2227,0.2236,0.2219,0.2229,0.2237,0.2288,0.2122,0,0,0,0,0,0.1962,0.1977,0.2002,0.2014,0.2027,0.2048,0.206,0.2073,0.2092,0.2102,0.2115,0.2155,0.2198,0.2215,0.2246,0.2284,0.2315,0.2334,0.2342,0.2348,0.2398,0.2459,0.2475,0.2298,0.2298,0.2298,0,0,0.1955,0.1977,0.1984,0.2011,0.203,0.2056,0.2056,0.2079,0.2118,0.2101,0.2154,0.2169,0.2216,0.2269,0.2296,0.2283,0.2412,0.2358,0.2362,0.2411,0.2469,0.2486,0.25,0.2303,0.2302,0.2301,0,0,0.1952,0.1974,0.1989,0.2011,0.2045,0.2063,0.2073,0.21,0.2134,0.2168,0.2194,0.2244,0.2277,0.2338,0.2371,0.2451,0.2449,0.2463,0.254,0.2595,0.2609,0.2622,0.2655,0.2671,0.247,0.247,0.247,0,0.1943,0.1984,0.1992,0.202,0.2056,0.2071,0.2106,0.2139,0.2172,0.2223,0.2192,0.2313,0.2328,0.2446,0.248,0.247,0.2487,0.2477,0.2601,0.2615,0.2628,0.2659,0.2676,0.2471,0.2471,0.2471,0.2471,0,0.196,0.2002,0.2017,0.2066,0.2086,0.2127,0.2172,0.222,0.2252,0.2287,0.2391,0.2413,0.25,0.2511,0.2513,0.2641,0.2616,0.2589,0.2559,0.2645,0.2672,0.269,0.2472,0.2472,0.2471,0.2471,0,0,0.1928,0.2016,0.2027,0.208,0.2132,0.2158,0.2238,0.233,0.2414,0.244,0.2542,0.2623,0.2639,0.2686,0.2699,0.2751,0.2832,0.2714,0.2717,0.2719,0.2938,0.2877,0.2891,0.2803,0.2807,0.281,0.2906,0,0.1955,0.204,0.2067,0.2153,0.221,0.2266,0.234,0.2418,0.2482,0.2573,0.2641,0.2715,0.2705,0.2736,0.2798,0.2824,0.2887,0.2809,0.2885,0.2888,0.2799,0.2914,0.2683,0.2747,0.2924,0.2927,0.2929,0,0.1969,0.2042,0.2137,0.2256,0.2283,0.2327,0.2479,0.2545,0.2673,0.2718,0.2812,0.2837,0.2952,0.2898,0.303,0.297,0.2988,0.2992,0.2995,0.2968,0.2864,0.2702,0.2773,0.296,0.2957,0.2955,0.2953,0,0.1981,0.2089,0.2185,0.2224,0.2344,0.2415,0.2479,0.2601,0.2669,0.281,0.2846,0.2978,0.3021,0.3089,0.3114,0.3074,0.3219,0.3155,0.313,0.3123,0.2968,0.2941,0.3275,0.3275,0.3275,0.3275,0.3275,0,0.2026,0.2112,0.2207,0.2274,0.2376,0.2443,0.2556,0.2649,0.2757,0.2826,0.2917,0.2985,0.3068,0.3141,0.3166,0.3215,0.3271,0.3196,0.317,0.2957,0.2931,0.3152,0.3136,0.3278,0.3278,0.3277,0.3276,0,0.2053,0.2125,0.2228,0.2356,0.2387,0.2458,0.2553,0.2629,0.2742,0.2833,0.2866,0.3001,0.3112,0.3186,0.3286,0.3266,0.3318,0.3319,0.3058,0.3001,0.317,0.3153,0.3317,0.3316,0.3316,0.3315,0.3315,0,0.2087,0.2147,0.2249,0.227,0.2335,0.2427,0.2476,0.2603,0.2663,0.2832,0.2864,0.3011,0.3082,0.3218,0.3239,0.3297,0.3347,0.3097,0.3006,0.323,0.3187,0.3171,0.3156,0.278,0.2775,0.2772,0.2768,0,0.2126,0.215,0.2208,0.224,0.2288,0.235,0.2434,0.2476,0.262,0.2688,0.2812,0.2886,0.3046,0.3007,0.3078,0.3076,0.3069,0.3019,0.3346,0.2806,0.2732,0.2686,0.2688,0.2733,0.2737,0.2739,0.2741,0.2743,0.21,0.211,0.2124,0.2165,0.2203,0.2239,0.2281,0.2344,0.2404,0.2468,0.2632,0.2659,0.2753,0.2746,0.2722,0.2735,0.2933,0.2806,0.2815,0.2829,0.275,0.268,0.2656,0.2659,0.2661,0.2663,0.2665,0,0.2,0.2008,0.2034,0.2056,0.2063,0.2134,0.2211,0.2192,0.2211,0.2279,0.2333,0.2187,0.2196,0.2326,0.2297,0.2334,0.2277,0.2255,0.2151,0.2191,0.2224,0.211,0.1848,0.1845,0.1842,0.1839,0,0,0.1927,0.1895,0.1919,0.189,0.1926,0.1945,0.1986,0.1924,0.1944,0.1851,0.1857,0.1993,0.2197,0.1928,0.196,0.1898,0.2006,0.1833,0.2498,0.2411,0.2439,0.2569,0.2442,0,0,0,0,0]},{"header":{"parameterUnit":"m.s-1","parameterCategory":2,"la1":30.2991,"la2":30.254,"lo1":-89.0895,"lo2":-89.0444,"dy":0.0017,"dx":0.0017,"nx":28,"ny":28,"refTime":"2024-05-30T03:00:00:Z","depth":"2","parameterNumber":3,"parameterNumberName":"V-component_of_CURRENTS"},"data":[0,0,0,0,0,0,0,0,0,0,0,0,0,0,0,0,0,0,0,0,0,0,0,0,0,0,0,0,0,0,0,0,0,0,0,0,0,0,0,0,0,0,0,0,0,0,0,0,0,0,0,0,0,0,0,0,0,0,-0.0157,-0.0158,0,-0.0285,-0.0286,-0.0288,-0.0366,-0.0367,-0.0367,-0.0367,-0.0467,-0.047,-0.0472,0,0,0,0,0,0,0,0,0,0,0,0,0,-0.0031,-0.0032,-0.0157,-0.0158,-0.016,-0.0285,-0.0286,-0.0288,-0.0366,-0.0367,-0.0367,-0.0367,-0.0467,-0.0469,-0.0472,0,0,0,0,0,0,0,0,0,0,0,0,0,-0.0115,-0.0033,-0.0157,-0.0214,-0.022,-0.0284,-0.0287,-0.0289,-0.0366,-0.0367,-0.0367,-0.0368,-0.0466,-0.0469,-0.0473,-0.0483,0,0,-0.0483,-0.0485,0,0,0,0,0,0,0,0,-0.011,-0.0119,-0.0204,-0.021,-0.0217,-0.031,-0.0279,-0.0352,-0.0366,-0.0311,-0.0367,-0.0368,-0.0412,-0.042,-0.0443,-0.0488,-0.0492,-0.0484,-0.0486,-0.0487,-0.0488,0,0,0,0,0,0,0,-0.0104,-0.0115,-0.0208,-0.0205,-0.0214,-0.025,-0.0262,-0.0294,-0.0356,-0.0316,-0.0322,-0.0335,-0.0415,-0.044,-0.0446,-0.0493,-0.0483,-0.0487,-0.0489,-0.049,-0.0592,-0.0592,0,0,0,0,0,0,-0.0085,-0.0109,-0.0204,-0.0212,-0.0163,-0.0252,-0.0266,-0.028,-0.0357,-0.0369,-0.0335,-0.0338,-0.0434,-0.0442,-0.045,-0.0465,-0.0487,-0.049,-0.0492,-0.0591,-0.0592,-0.0592,0,0,0,0,0,0,-0.0081,-0.0092,-0.0199,-0.0163,-0.0179,-0.0253,-0.0269,-0.0282,-0.031,-0.0371,-0.0383,-0.0349,-0.0434,-0.0445,-0.0476,-0.0469,-0.0492,-0.0495,-0.059,-0.0591,-0.0592,-0.0496,0,0,0,0,0,0,-0.0077,-0.009,-0.0095,-0.0161,-0.018,-0.0227,-0.0269,-0.0284,-0.0317,-0.0324,-0.0388,-0.0398,-0.0436,-0.0471,-0.048,-0.0475,-0.0498,-0.0589,-0.0591,-0.0592,-0.0498,-0.0493,-0.0489,0,0,0,0,0,-0.0072,-0.0076,-0.0094,-0.0106,-0.0184,-0.0227,-0.0239,-0.0295,-0.0317,-0.0323,-0.0368,-0.0396,-0.0485,-0.0473,-0.0484,-0.048,-0.0589,-0.059,-0.0592,-0.05,-0.0494,-0.0489,0,0,0,0,0,0,-0.0027,-0.0086,-0.0107,-0.013,-0.0169,-0.024,-0.0255,-0.0289,-0.0332,-0.0339,-0.0395,-0.0407,-0.0434,-0.0475,-0.0461,-0.0518,-0.0545,-0.0549,-0.0472,-0.0467,-0.0463,-0.0492,-0.0501,0,0,0,0,0,-0.0016,-0.0032,-0.0091,-0.0106,-0.0125,-0.0187,-0.0212,-0.0247,-0.0295,-0.0315,-0.0359,-0.041,-0.0449,-0.047,-0.0511,-0.0534,-0.0574,-0.0545,-0.054,-0.0536,-0.057,-0.0618,-0.062,-0.0597,-0.0597,-0.0597,0,0,-0.0003,-0.0036,-0.0047,-0.0097,-0.0135,-0.0156,-0.0204,-0.0236,-0.026,-0.0317,-0.0354,-0.039,-0.0452,-0.048,-0.0497,-0.0511,-0.0554,-0.0537,-0.0533,-0.057,-0.0619,-0.0622,-0.0623,-0.0598,-0.0598,-0.0597,0,0,0.002,-0.0012,-0.0018,-0.0046,-0.0095,-0.0131,-0.0136,-0.0199,-0.0233,-0.0267,-0.0316,-0.0354,-0.041,-0.0458,-0.0488,-0.0488,-0.0525,-0.0495,-0.0494,-0.0538,-0.054,-0.0543,-0.0544,-0.0548,-0.0494,-0.0494,-0.0494,0,0.0038,0.0013,-0.0024,-0.0036,-0.0057,-0.0114,-0.0123,-0.0165,-0.0229,-0.026,-0.0268,-0.0372,-0.0408,-0.0464,-0.0467,-0.0477,-0.0497,-0.0497,-0.053,-0.0534,-0.0538,-0.054,-0.0545,-0.049,-0.049,-0.0491,-0.0491,0,0.0053,0.0031,0.0027,-0.0006,-0.0022,-0.0044,-0.0095,-0.0127,-0.0167,-0.0213,-0.0274,-0.033,-0.0404,-0.0405,-0.0437,-0.0488,-0.0487,-0.0508,-0.0534,-0.0534,-0.0536,-0.0543,-0.0483,-0.0485,-0.0486,-0.0487,0,0,0.0092,0.0043,0.0041,0.0022,-0.0014,-0.0033,-0.0059,-0.0116,-0.0149,-0.0207,-0.0255,-0.0325,-0.0371,-0.0414,-0.0452,-0.0491,-0.0507,-0.0513,-0.0517,-0.0498,-0.0575,-0.0503,-0.0504,-0.0527,-0.0529,-0.053,-0.0543,0,0.0106,0.0087,0.0066,0.0049,0.003,-0.0015,-0.0035,-0.0085,-0.0132,-0.0188,-0.0269,-0.0323,-0.0369,-0.0396,-0.0447,-0.0491,-0.0532,-0.0501,-0.0596,-0.0599,-0.0523,-0.0514,-0.0489,-0.0494,-0.055,-0.0552,-0.0552,0,0.0128,0.0103,0.0087,0.005,0.0041,0.0023,-0.0027,-0.0054,-0.0135,-0.0168,-0.0247,-0.0306,-0.0385,-0.0418,-0.0522,-0.0496,-0.0552,-0.0583,-0.0584,-0.0572,-0.0544,-0.0518,-0.0505,-0.0565,-0.0564,-0.0563,-0.0562,0,0.0153,0.0122,0.0103,0.0089,0.0042,0.0016,-0.0011,-0.0064,-0.0074,-0.0172,-0.0173,-0.0295,-0.0313,-0.0434,-0.0492,-0.0521,-0.0573,-0.0618,-0.0612,-0.0605,-0.0637,-0.0629,-0.0723,-0.0723,-0.0723,-0.0723,-0.0723,0,0.0162,0.0138,0.0099,0.0072,0.0063,0.0025,0.0008,-0.0036,-0.0072,-0.0038,-0.0176,-0.0144,-0.0318,-0.0358,-0.0473,-0.0527,-0.0561,-0.0622,-0.0616,-0.0595,-0.0584,-0.0708,-0.0706,-0.0723,-0.0723,-0.0723,-0.0723,0,0.017,0.0137,0.0118,0.0073,0.0064,0.0052,0.0047,0.0049,-0.0001,0.0043,0.0023,-0.0024,-0.0062,-0.0212,-0.034,-0.0444,-0.0544,-0.0563,-0.0496,-0.0483,-0.0562,-0.0556,-0.0599,-0.0597,-0.0595,-0.0594,-0.0592,0,0.0182,0.0157,0.0141,0.0155,0.0121,0.0108,0.0126,0.0083,0.0117,0.0166,0.0212,0.018,0.0231,0.0065,-0.0162,-0.0358,-0.0428,-0.046,-0.0541,-0.0566,-0.0556,-0.0552,-0.0548,-0.0527,-0.0526,-0.0524,-0.0523,0,0.0199,0.0181,0.0181,0.0211,0.0223,0.0249,0.0264,0.0325,0.0341,0.0427,0.0571,0.0614,0.0437,0.0272,-0.0015,-0.0159,-0.044,-0.0436,-0.0494,-0.0546,-0.0496,-0.0486,-0.0486,-0.0511,-0.0512,-0.0513,-0.0514,-0.0514,0.0246,0.0264,0.0275,0.031,0.0337,0.0406,0.0492,0.0577,0.0721,0.0877,0.087,0.0933,0.0658,0.0313,0.0042,-0.0294,-0.0304,-0.0438,-0.0444,-0.0452,-0.0425,-0.0373,-0.0358,-0.0358,-0.0359,-0.0359,-0.0359,0,0.0315,0.0322,0.0377,0.0439,0.0525,0.0477,0.0615,0.0739,0.1006,0.109,0.1213,0.0991,0.0777,0.0419,-0.0063,-0.0318,-0.0389,-0.0404,-0.0459,-0.0466,-0.0474,-0.0454,-0.0392,-0.0393,-0.0394,-0.0395,0,0,0.0347,0.0411,0.0443,0.0607,0.0652,0.0775,0.0885,0.1075,0.1175,0.1343,0.1345,0.1276,0.0866,0.0515,0.0144,-0.0136,-0.0242,-0.0183,-0.0123,-0.015,-0.0155,-0.0453,-0.0422,0,0,0,0,0]}],[{"header":{"parameterUnit":"m.s-1","parameterCategory":2,"la1":30.2991,"la2":30.254,"lo1":-89.0895,"lo2":-89.0444,"dy":0.0017,"dx":0.0017,"nx":28,"ny":28,"refTime":"2024-05-30T03:00:00:Z","depth":"4","parameterNumber":2,"parameterNumberName":"U-component_of_CURRENTS"},"data":[0,0,0,0,0,0,0,0,0,0,0,0,0,0,0,0,0,0,0,0,0,0,0,0,0,0,0,0,0,0,0,0,0,0,0,0,0,0,0,0,0,0,0,0,0,0,0,0,0,0,0,0,0,0,0,0,0,0,0.1019,0.102,0,0.111,0.1111,0.1112,0.1185,0.1185,0.1186,0.1187,0.127,0.1271,0.1273,0,0,0,0,0,0,0,0,0,0,0,0,0,0.0955,0.0956,0.1019,0.102,0.1021,0.111,0.1111,0.1112,0.1184,0.1185,0.1186,0.1187,0.1269,0.1271,0.1273,0,0,0,0,0,0,0,0,0,0,0,0,0,0.1008,0.0956,0.1019,0.1068,0.1074,0.1109,0.1111,0.1112,0.1184,0.1185,0.1187,0.1188,0.1269,0.1271,0.1273,0.1265,0,0,0.128,0.1281,0,0,0,0,0,0,0,0,0.1005,0.101,0.106,0.1065,0.1071,0.1137,0.1119,0.1163,0.1184,0.1142,0.1187,0.1188,0.1224,0.123,0.1245,0.1268,0.1272,0.128,0.1282,0.1283,0.1283,0,0,0,0,0,0,0,0.1001,0.1007,0.1055,0.1061,0.1068,0.1102,0.111,0.1128,0.1175,0.1146,0.1151,0.1161,0.1227,0.1242,0.1247,0.1273,0.128,0.1282,0.1284,0.1285,0.1345,0.1345,0,0,0,0,0,0,0.0986,0.1003,0.1052,0.1057,0.104,0.1102,0.1111,0.1115,0.1175,0.1186,0.116,0.1164,0.1238,0.1244,0.125,0.1317,0.1283,0.1285,0.1286,0.1344,0.1345,0.1345,0,0,0,0,0,0,0.0984,0.0989,0.1048,0.1033,0.1043,0.1102,0.1105,0.1116,0.1161,0.1187,0.1197,0.1198,0.1239,0.1247,0.1301,0.1318,0.1286,0.1288,0.1344,0.1345,0.1345,0.1403,0,0,0,0,0,0,0.0982,0.0988,0.1004,0.1032,0.1043,0.1092,0.1104,0.1117,0.1164,0.1171,0.1222,0.1229,0.124,0.1298,0.1303,0.132,0.129,0.1344,0.1344,0.1345,0.1401,0.1405,0.1409,0,0,0,0,0,0.0979,0.0995,0.1004,0.1012,0.1057,0.1094,0.1104,0.1149,0.1165,0.1192,0.123,0.1229,0.1303,0.1301,0.1307,0.1325,0.1344,0.1344,0.1345,0.1399,0.1404,0.1409,0,0,0,0,0,0,0.0983,0.1004,0.1015,0.1039,0.1073,0.1107,0.114,0.1162,0.1213,0.1228,0.1248,0.1259,0.1314,0.1304,0.13,0.1339,0.1316,0.1318,0.1355,0.136,0.1364,0.1362,0.1292,0,0,0,0,0,0.0986,0.1004,0.1029,0.1054,0.107,0.1107,0.1134,0.1162,0.12,0.1226,0.1263,0.1288,0.1313,0.1328,0.1355,0.1377,0.1389,0.1385,0.1389,0.1393,0.1393,0.1413,0.142,0.1347,0.1347,0.1347,0,0,0.099,0.1011,0.1019,0.1057,0.1086,0.1111,0.1128,0.1175,0.1201,0.1224,0.1288,0.1321,0.1327,0.1366,0.1384,0.1364,0.1428,0.1394,0.1397,0.1395,0.1414,0.1422,0.1428,0.1347,0.1347,0.1347,0,0,0.1002,0.103,0.1043,0.1072,0.112,0.1141,0.1157,0.1207,0.124,0.1291,0.1317,0.1358,0.1396,0.1408,0.1411,0.1446,0.1462,0.1452,0.1464,0.1484,0.1491,0.1496,0.1563,0.1574,0.1439,0.144,0.144,0,0.1016,0.1022,0.1057,0.1081,0.1101,0.1152,0.1168,0.1208,0.1275,0.1296,0.1317,0.1391,0.1407,0.1437,0.1455,0.1457,0.1491,0.145,0.1492,0.1497,0.1502,0.1569,0.158,0.1442,0.1442,0.1442,0.1442,0,0.1017,0.104,0.1056,0.1092,0.1127,0.1154,0.1199,0.125,0.1291,0.1321,0.1387,0.1426,0.1464,0.1472,0.1478,0.1518,0.1544,0.1511,0.1484,0.1514,0.1582,0.1593,0.1447,0.1446,0.1445,0.1444,0,0,0.0998,0.1043,0.1052,0.1067,0.1129,0.1156,0.1207,0.1251,0.1291,0.1358,0.1404,0.1452,0.1493,0.1499,0.1524,0.1537,0.162,0.1546,0.1546,0.1623,0.1717,0.1619,0.1622,0.1604,0.1606,0.1606,0.1767,0,0.0987,0.1008,0.1041,0.1078,0.1088,0.1152,0.1192,0.1251,0.1311,0.138,0.142,0.1491,0.1495,0.1546,0.1558,0.1622,0.1645,0.1583,0.1667,0.167,0.1586,0.1628,0.161,0.1776,0.1778,0.178,0.1781,0,0.0969,0.0982,0.0998,0.1054,0.1068,0.1111,0.1189,0.1239,0.1334,0.1387,0.1461,0.1521,0.1602,0.1583,0.1692,0.1663,0.1692,0.1719,0.1724,0.1612,0.1588,0.1727,0.1801,0.18,0.1798,0.1797,0.1796,0,0.091,0.0961,0.0967,0.0985,0.1054,0.1091,0.1148,0.1241,0.1303,0.1425,0.1497,0.158,0.1672,0.1707,0.1782,0.1759,0.1884,0.1848,0.1784,0.1781,0.1799,0.179,0.1885,0.1885,0.1884,0.1884,0.1883,0,0.0867,0.088,0.095,0.095,0.0988,0.1064,0.1138,0.1208,0.1333,0.1401,0.1517,0.159,0.1708,0.1793,0.1816,0.1853,0.1916,0.1802,0.1804,0.1825,0.1817,0.181,0.1799,0.189,0.1889,0.1887,0.1886,0,0.0803,0.0836,0.0857,0.0928,0.0959,0.1,0.1142,0.1195,0.1335,0.144,0.1496,0.1658,0.1775,0.1866,0.1957,0.1913,0.194,0.1918,0.199,0.1992,0.1828,0.1818,0.1889,0.1887,0.1885,0.1883,0.1882,0,0.0765,0.0767,0.0838,0.0857,0.0896,0.0978,0.1027,0.1175,0.1237,0.1448,0.1476,0.1666,0.1748,0.1828,0.1909,0.1978,0.193,0.1956,0.1834,0.1828,0.1824,0.1817,0.181,0.1879,0.1878,0.1878,0.1877,0,0.0702,0.0742,0.0767,0.0797,0.0847,0.0893,0.0981,0.1029,0.1193,0.1338,0.1441,0.1539,0.1668,0.1761,0.184,0.1857,0.1949,0.1934,0.1937,0.1823,0.1816,0.1812,0.1808,0.187,0.1871,0.1872,0.1872,0,0.0674,0.0684,0.0724,0.0751,0.0797,0.0798,0.0853,0.0935,0.1028,0.1256,0.1279,0.1469,0.1624,0.1698,0.1749,0.1794,0.1763,0.17,0.1714,0.1723,0.1592,0.1554,0.1538,0,0,0,0,0,0.0648,0.0653,0.0671,0.0685,0.0722,0.0745,0.0816,0.0877,0.1036,0.1069,0.1181,0.1284,0.1427,0.1525,0.1542,0.1682,0.1764,0.1695,0.1693,0.1831,0.1839,0.1698,0,0,0,0,0,0,0.0625,0.0647,0.0654,0.0633,0.0635,0.0656,0.0696,0.0784,0.081,0.0985,0.1062,0.1213,0.136,0.1413,0.1523,0.1555,0.1529,0.1819,0.1816,0.1826,0.1833,0.184,0.1698,0,0,0,0,0]},{"header":{"parameterUnit":"m.s-1","parameterCategory":2,"la1":30.2991,"la2":30.254,"lo1":-89.0895,"lo2":-89.0444,"dy":0.0017,"dx":0.0017,"nx":28,"ny":28,"refTime":"2024-05-30T03:00:00:Z","depth":"4","parameterNumber":3,"parameterNumberName":"V-component_of_CURRENTS"},"data":[0,0,0,0,0,0,0,0,0,0,0,0,0,0,0,0,0,0,0,0,0,0,0,0,0,0,0,0,0,0,0,0,0,0,0,0,0,0,0,0,0,0,0,0,0,0,0,0,0,0,0,0,0,0,0,0,0,0,0.0043,0.0042,0,-0.0065,-0.0066,-0.0068,-0.013,-0.013,-0.013,-0.013,-0.021,-0.0212,-0.0214,0,0,0,0,0,0,0,0,0,0,0,0,0,0.0143,0.0141,0.0043,0.0042,0.0041,-0.0065,-0.0066,-0.0068,-0.013,-0.013,-0.013,-0.013,-0.0209,-0.0211,-0.0214,0,0,0,0,0,0,0,0,0,0,0,0,0,0.0073,0.0141,0.0043,-0.0002,-0.0007,-0.0064,-0.0066,-0.0068,-0.0129,-0.013,-0.013,-0.013,-0.0208,-0.0211,-0.0214,-0.0229,0,0,-0.0223,-0.0225,0,0,0,0,0,0,0,0,0.0077,0.0069,0.0006,0.0001,-0.0005,-0.0083,-0.0061,-0.012,-0.0129,-0.0084,-0.013,-0.013,-0.0164,-0.0171,-0.0193,-0.0233,-0.0236,-0.0224,-0.0226,-0.0227,-0.0228,0,0,0,0,0,0,0,0.0082,0.0073,-0.0001,0.0005,-0.0002,-0.0035,-0.0045,-0.0073,-0.0122,-0.0088,-0.0093,-0.0103,-0.0167,-0.0189,-0.0195,-0.0238,-0.0224,-0.0226,-0.0228,-0.0229,-0.0265,-0.0264,0,0,0,0,0,0,0.01,0.0078,0.0003,-0.0004,0.0038,-0.0036,-0.0047,-0.0059,-0.0123,-0.0132,-0.0102,-0.0105,-0.0184,-0.0191,-0.0198,-0.0191,-0.0227,-0.023,-0.0231,-0.0266,-0.0265,-0.0264,0,0,0,0,0,0,0.0103,0.0094,0.0007,0.0035,0.0022,-0.0037,-0.005,-0.0061,-0.0087,-0.0133,-0.0143,-0.0118,-0.0185,-0.0193,-0.0225,-0.0195,-0.0231,-0.0234,-0.0267,-0.0266,-0.0264,-0.0194,0,0,0,0,0,0,0.0106,0.0096,0.0093,0.0037,0.0021,-0.0026,-0.005,-0.0063,-0.0093,-0.0097,-0.015,-0.0158,-0.0185,-0.022,-0.0228,-0.02,-0.0236,-0.0268,-0.0266,-0.0265,-0.0198,-0.0191,-0.0185,0,0,0,0,0,0.011,0.0102,0.0093,0.0084,0.0019,-0.0026,-0.0037,-0.0081,-0.0093,-0.0105,-0.014,-0.0156,-0.0214,-0.0223,-0.0232,-0.0204,-0.0269,-0.0267,-0.0265,-0.0201,-0.0192,-0.0185,0,0,0,0,0,0,0.0135,0.0094,0.0083,0.0061,0.0025,-0.0035,-0.0052,-0.0079,-0.0118,-0.012,-0.0161,-0.0171,-0.0186,-0.0207,-0.0215,-0.0208,-0.0238,-0.0238,-0.0186,-0.0178,-0.0172,-0.0136,-0.0239,0,0,0,0,0,0.0144,0.0133,0.0086,0.007,0.0055,0.0004,-0.0019,-0.0048,-0.0089,-0.0107,-0.0142,-0.0169,-0.0184,-0.0192,-0.0221,-0.0223,-0.0239,-0.0205,-0.0199,-0.0193,-0.017,-0.016,-0.015,-0.0258,-0.0258,-0.0258,0,0,0.0149,0.0125,0.0118,0.0076,0.0044,0.0032,-0.0011,-0.0045,-0.0046,-0.0108,-0.0123,-0.0158,-0.0184,-0.0188,-0.0193,-0.0201,-0.018,-0.0191,-0.0186,-0.0165,-0.0157,-0.0147,-0.0137,-0.0256,-0.0257,-0.0257,0,0,0.0159,0.0135,0.0134,0.0111,0.0071,0.0044,0.0039,-0.0016,-0.0031,-0.0059,-0.0088,-0.0099,-0.0148,-0.0141,-0.0146,-0.0118,-0.0154,-0.0131,-0.006,-0.0051,-0.0042,-0.0034,-0.0075,-0.0071,-0.0117,-0.0116,-0.0116,0,0.0169,0.0171,0.0124,0.012,0.0121,0.0058,0.007,0.0038,-0.0018,-0.0005,-0.0054,-0.0081,-0.0113,-0.0075,-0.007,-0.0098,-0.0124,-0.0088,-0.0041,-0.0033,-0.0026,-0.007,-0.0066,-0.0113,-0.0113,-0.0114,-0.0114,0,0.0183,0.019,0.0186,0.0176,0.0161,0.0159,0.0123,0.011,0.0082,0.0063,0.0068,0.0014,0.0014,-0.0001,-0.0033,0.0017,-0.0031,-0.0043,-0.0057,-0.0011,-0.0061,-0.0058,-0.0108,-0.0109,-0.011,-0.0111,0,0,0.0206,0.0204,0.0208,0.024,0.0204,0.0204,0.0205,0.0216,0.0245,0.0181,0.022,0.0184,0.0157,0.0151,0.0115,0.0118,0.0124,0.0062,0.006,0.0027,0.0102,0.005,0.0046,0.0115,0.0117,0.0118,0.0034,0,0.0246,0.0286,0.0265,0.0317,0.0347,0.0315,0.0332,0.0329,0.0307,0.0316,0.0283,0.0286,0.0215,0.0215,0.0208,0.0143,0.0139,0.0145,0.0058,0.0055,0.0009,0.0053,0.0124,0.0036,0.0036,0.0037,0.0037,0,0.0284,0.0315,0.0383,0.044,0.0449,0.047,0.0522,0.0524,0.0517,0.05,0.0491,0.0435,0.0426,0.0353,0.0284,0.0284,0.0211,0.0151,0.0146,0.0085,0.0011,-0.0013,0.0041,0.0041,0.004,0.004,0.004,0,0.0366,0.041,0.0488,0.0501,0.0533,0.0579,0.0597,0.06,0.0627,0.0623,0.0627,0.0586,0.0562,0.0478,0.0323,0.0311,0.0223,0.0195,0.008,0.0072,0.0111,0.0104,0.0174,0.0174,0.0175,0.0175,0.0175,0,0.0438,0.0504,0.0545,0.0589,0.0683,0.0679,0.0767,0.0765,0.0783,0.0814,0.0737,0.0731,0.0594,0.0502,0.0367,0.0217,0.0259,0.0105,0.0067,0.0134,0.0131,0.011,0.0103,0.0172,0.0172,0.0173,0.0174,0,0.0517,0.0544,0.0633,0.0698,0.0725,0.0792,0.0858,0.0911,0.0916,0.0946,0.0947,0.0856,0.0723,0.0558,0.0401,0.0279,0.014,0.0081,0.0136,0.0099,-0.0034,-0.0036,-0.0043,-0.0045,-0.0047,-0.0048,-0.005,0,0.0566,0.0621,0.0706,0.075,0.0787,0.088,0.0934,0.0972,0.101,0.1005,0.1015,0.0913,0.0817,0.0552,0.0381,0.0129,0.0093,0.0012,0.0023,-0.0009,-0.0047,-0.0046,-0.0045,-0.0052,-0.0053,-0.0053,-0.0054,0,0.0643,0.067,0.0727,0.0814,0.089,0.097,0.1046,0.1085,0.1108,0.1128,0.1058,0.0911,0.0757,0.0538,0.0341,0.0162,0.0061,-0.0007,-0.0004,0.0005,-0.0021,-0.0056,-0.0054,-0.006,-0.0059,-0.0058,-0.0058,0,0.0679,0.0723,0.0781,0.0856,0.0947,0.1014,0.106,0.1092,0.113,0.1115,0.1088,0.0918,0.083,0.0555,0.0372,0.0189,0.0144,0.0082,0.008,0.0084,0.014,0.0127,0.012,0,0,0,0,0,0.0696,0.0732,0.0811,0.0879,0.097,0.1011,0.1106,0.114,0.1171,0.1125,0.1105,0.0948,0.0671,0.0563,0.0371,0.0335,0.0111,0.0103,0.0039,-0.0094,-0.0087,-0.0047,0,0,0,0,0,0,0.0698,0.0766,0.0804,0.0885,0.0925,0.1018,0.1072,0.1093,0.1066,0.107,0.0931,0.0877,0.0618,0.0767,0.0355,0.0303,0.0232,-0.0014,-0.0019,-0.0098,-0.0092,-0.0086,-0.0043,0,0,0,0,0]}]]